Location: Pardubice
(50.0330°N, 15.7830°E)
Time: 00:36:55
(UTC+02:00)

ISS - Visible Passes

Search period start: 22 October 2019 00:00
Search period end: 31 October 2019 23:00
Orbit: 411 x 421 km, 51.6° (Epoch: 21 October)

Date Brightness Start Highest point End Pass type
(mag) Time Alt. Az. Time Alt. Az. Time Alt. Az.
24 Oct -0.9 06:50:23 10° S 06:52:48 18° SE 06:55:13 10° E visible
25 Oct -0.7 06:02:58 10° SSE 06:04:25 12° SE 06:05:52 10° ESE visible
26 Oct -2.3 06:48:54 10° SW 06:52:02 37° SSE 06:55:10 10° E visible
27 Oct -1.7 05:00:46 10° SSW 05:03:33 25° SE 05:06:23 10° E visible
28 Oct -1.4 04:14:37 17° SSE 04:15:05 17° SE 04:17:24 10° E visible
28 Oct -3.5 05:48:01 10° WSW 05:51:23 69° SSE 05:54:44 10° ENE visible
29 Oct -3.1 05:01:15 26° SW 05:02:47 50° SSE 05:06:04 10° ENE visible
30 Oct -2.1 04:14:50 32° SE 04:14:50 32° SE 04:17:20 10° E visible
30 Oct -3.8 05:47:44 12° W 05:50:48 78° NNW 05:54:11 10° ENE visible
31 Oct -0.2 03:28:19 11° E 03:28:19 11° E 03:28:29 10° E visible
31 Oct -3.8 05:01:13 46° WSW 05:02:07 86° SSE 05:05:30 10° ENE visible
